Muskegon, MI

11:08 PM EDT on October 20, 2019 (GMT -0400)
Muskegon County

Weather History for KMKG - August, 2019

Change the Weather History Date:

Wednesday, August 28, 2019

  Actual Average Record
Temperature  
Mean Temperature 66 °F 68 °F  
Max Temperature 73 °F 77 °F 91 °F (1953)
Min Temperature 59 °F 59 °F 40 °F (1941)
Degree Days  
Heating Degree Days 0 1  
Month to date heating degree days 0 11  
Since 1 June heating degree days 58 88  
Since 1 July heating degree days 1 22  
Cooling Degree Days 1 4  
Month to date cooling degree days 172 155  
Year to date cooling degree days 543 491  
Since 1 June cooling degree days 540 462  
Growing Degree Days 16 (Base 50)    
Moisture  
Dew Point 52 °F    
Average Humidity 56    
Maximum Humidity 78    
Minimum Humidity 44    
Precipitation  
Precipitation 0.00 in 0.12 in 2.25 in (2018)
Month to date precipitation 2.08 3.04  
Year to date precipitation 27.05 20.23  
Snow  
Snow 0.00 in 0.00 in - ()
Month to date snowfall 0.0 0.0  
Since 1 June snowfall 0.0 0.0  
Since 1 July snowfall 0.0 0.0  
Snow Depth 0.00 in    
Sea Level Pressure  
Sea Level Pressure 29.86 in    
Wind  
Wind Speed 10 mph ()    
Max Wind Speed 24 mph    
Max Gust Speed 34 mph    
Visibility 10.0 miles    
Events      
T = Trace of Precipitation, MM = Missing Value Source: Averaged Metar Reports

Daily Weather History Graph

Daily Weather History Graph

Search for Another Location

Airport or City:

Astronomy

Aug. 28, 2019 Rise Set
Actual Time 7:04 AM EDT 8:27 PM EDT
Civil Twilight 6:34 AM EDT 8:56 PM EDT
Nautical Twilight 5:59 AM EDT 9:32 PM EDT
Astronomical Twilight 5:21 AM EDT 10:09 PM EDT
Moon 4:30 AM EDT (8/28) 7:42 PM EDT (8/28)
Length of Visible Light 14h 21m
Length of Day
13h 22m
Waning Crescent, 5% of the Moon is Illuminated
Aug 28
Waning Crescent
Aug 30
New
Sep 5
First Quarter
Sep 14
Full
Sep 21
Last Quarter

Hourly Weather History & Observations

Time (EDT) Temp. Dew Point Humidity Pressure Visibility Wind Dir Wind Speed Gust Speed Precip Events Conditions
12:55 AM 69.1 °F 46.9 °F 45% 29.83 in 10.0 mi West 6.9 mph - N/A   Clear
1:55 AM 69.1 °F 50.0 °F 51% 29.83 in 10.0 mi West 10.4 mph - N/A   Mostly Cloudy
2:55 AM 66.9 °F 51.1 °F 57% 29.82 in 10.0 mi WSW 6.9 mph - N/A   Partly Cloudy
3:55 AM 68.0 °F 53.1 °F 59% 29.81 in 10.0 mi WSW 9.2 mph - N/A   Clear
4:55 AM 69.1 °F 53.1 °F 57% 29.80 in 10.0 mi WSW 12.7 mph 25.3 mph N/A   Clear
5:55 AM 68.0 °F 53.1 °F 59% 29.80 in 10.0 mi West 15.0 mph 25.3 mph N/A   Partly Cloudy
6:55 AM 66.0 °F 52.0 °F 60% 29.81 in 10.0 mi WSW 12.7 mph 23.0 mph N/A   Clear
7:55 AM 66.0 °F 53.1 °F 63% 29.83 in 10.0 mi West 15.0 mph 25.3 mph N/A   Partly Cloudy
8:55 AM 68.0 °F 54.0 °F 61% 29.83 in 10.0 mi West 16.1 mph 28.8 mph N/A   Partly Cloudy
9:52 AM 69.8 °F 53.6 °F 56% 29.85 in 10.0 mi West 15.0 mph 27.6 mph N/A   Mostly Cloudy
9:55 AM 70.0 °F 54.0 °F 57% 29.84 in 10.0 mi WSW 17.3 mph 27.6 mph N/A   Mostly Cloudy
10:32 AM 68.0 °F 53.1 °F 59% 29.85 in 10.0 mi West 15.0 mph 26.5 mph N/A   Mostly Cloudy
10:55 AM 69.1 °F 52.0 °F 54% 29.85 in 10.0 mi West 12.7 mph 26.5 mph N/A   Mostly Cloudy
11:55 AM 72.0 °F 53.1 °F 51% 29.86 in 10.0 mi West 17.3 mph 26.5 mph N/A   Mostly Cloudy
12:55 PM 73.0 °F 51.1 °F 46% 29.86 in 10.0 mi WSW 18.4 mph 29.9 mph N/A   Mostly Cloudy
1:02 PM 72.0 °F 50.0 °F 46% 29.87 in 10.0 mi West 20.7 mph 33.4 mph N/A   Mostly Cloudy
1:55 PM 71.1 °F 50.0 °F 47% 29.87 in 10.0 mi West 15.0 mph 25.3 mph N/A   Overcast
2:55 PM 69.1 °F 48.0 °F 47% 29.88 in 10.0 mi West 16.1 mph 29.9 mph N/A   Overcast
3:55 PM 68.0 °F 48.9 °F 50% 29.89 in 10.0 mi West 10.4 mph 23.0 mph N/A   Overcast
4:55 PM 70.0 °F 50.0 °F 49% 29.89 in 10.0 mi West 8.1 mph - N/A   Overcast
5:55 PM 69.1 °F 50.0 °F 51% 29.89 in 10.0 mi West 9.2 mph - N/A   Mostly Cloudy
6:55 PM 69.1 °F 50.0 °F 51% 29.90 in 10.0 mi West 6.9 mph - N/A   Overcast
7:55 PM 69.1 °F 52.0 °F 54% 29.90 in 10.0 mi West 5.8 mph - N/A   Mostly Cloudy
8:55 PM 66.9 °F 53.1 °F 61% 29.91 in 10.0 mi West 3.5 mph - N/A   Mostly Cloudy
9:55 PM 64.9 °F 55.0 °F 70% 29.92 in 10.0 mi Calm Calm - N/A   Overcast
10:55 PM 64.9 °F 55.9 °F 73% 29.93 in 10.0 mi Calm Calm - N/A   Overcast
11:55 PM 62.1 °F 55.0 °F 78% 29.94 in 10.0 mi Calm Calm - N/A   Scattered Clouds